SHERPA-LTE1 (48941 NORAD) Tracking and Keplerian Element Data

This shows tracking and keplerian element data for the satellite.

Feedback or suggestion? Click here.




ElementValue
Catalog48941
NameSHERPA-LTE1
Epoch Orbit1396
Epoch Day269.10897962
Epoch Year2021
RAAN36.7354
Inclination97.5227
Eccentricity0.0015098
Argument of Perigee293.456
Mean Anonmoly66.5084
Mean Motion15.13912682
Decay Rate1.086E-05
L11 48941U 21059BQ 21269.10897962 .00001086 00000-0 63486-4 0 9991
L22 48941 97.5227 36.7354 0015098 293.4560 66.5084 15.13912682 13966

Live tracking and technical data element details for SHERPA-LTE1 (NORAD 48941). SHERPA-LTE1 can be tracked NOW for your location showing map with azimuth and elevation plus other details from your city location.

Track the satellite on the map from your city or location and see movement details for azimuth, elevation, latitude, longitude, range, height, and movement on the map or in text.







IsCatalogInMostPopularTable: catalog: 48941, numindb: 15
Update: records affected: 1



GetName: 48941 SHERPA-LTE1

Hit Count: updated at: Sun, 26 Sep 2021 16:18:38 GMT